This is the latest recevied weather packets stored in our database for station/object N4ASP-13. If no packets are shown the sender has not sent any weather packets the latest 10 day(s).
| Time | Temp. | Humidity | Pressure | Rain* | Wind** | Luminosity | Snow |
|---|---|---|---|---|---|---|---|
| 1777202725 | 15° C | 88% | 1013.7 hPa | 0 mm | - | 109 W/m² | - |
| 1777202664 | 15° C | 88% | 1013.5 hPa | 0 mm | - | 98 W/m² | - |
| 1777202598 | 15° C | 88% | 1013.5 hPa | 0 mm | - | 91 W/m² | - |
| 1777202538 | 14.44° C | 88% | 1013.5 hPa | 0 mm | - | 77 W/m² | - |
| 1777202478 | 15° C | 88% | 1013.5 hPa | 0 mm | - | 60 W/m² | - |
| 1777202418 | 14.44° C | 88% | 1013.4 hPa | 0 mm | - | 81 W/m² | - |
| 1777202358 | 14.44° C | 88% | 1013.5 hPa | 0 mm | - | 77 W/m² | - |
| 1777202295 | 14.44° C | 88% | 1013.4 hPa | 0 mm | - | 79 W/m² | - |
| 1777202236 | 14.44° C | 88% | 1013.4 hPa | 0 mm | - | 81 W/m² | - |
| 1777202175 | 14.44° C | 88% | 1013.3 hPa | 0 mm | - | 81 W/m² | - |
| 1777202115 | 14.44° C | 88% | 1013.3 hPa | 0 mm | - | 83 W/m² | - |
| 1777202052 | 14.44° C | 88% | 1013.2 hPa | 0 mm | - | 76 W/m² | - |
| 1777201982 | 14.44° C | 88% | 1013.3 hPa | 0 mm | - | 69 W/m² | - |
| 1777201922 | 14.44° C | 88% | 1013.2 hPa | 0 mm | - | 62 W/m² | - |
| 1777201862 | 14.44° C | 88% | 1013.1 hPa | 0 mm | - | 58 W/m² | - |
| 1777201803 | 14.44° C | 88% | 1013 hPa | 0 mm | - | 56 W/m² | - |
| 1777201742 | 14.44° C | 88% | 1013 hPa | 0 mm | - | 53 W/m² | - |
| 1777201678 | 14.44° C | 88% | 1013.1 hPa | 0 mm | - | 44 W/m² | - |
| 1777201615 | 14.44° C | 88% | 1013 hPa | 0 mm | - | 42 W/m² | - |
| 1777201556 | 14.44° C | 88% | 1013 hPa | 0 mm | - | 39 W/m² | - |
| 1777201497 | 14.44° C | 88% | 1013.1 hPa | 0 mm | - | 37 W/m² | - |
| 1777201435 | 14.44° C | 88% | 1013.1 hPa | 0 mm | - | 39 W/m² | - |
| 1777201370 | 14.44° C | 88% | 1013.1 hPa | 0 mm | - | 39 W/m² | - |
| 1777201311 | 14.44° C | 88% | 1013 hPa | 0 mm | - | 33 W/m² | - |
| 1777201251 | 14.44° C | 88% | 1013 hPa | 0 mm | - | 30 W/m² | - |
* Rain latest hour (hover to see other rain measurements)
** Current wind speed in m/s (hover to see current wind gust speed)